Location: G�ndlingen
(48.0142°N, 7.6396°E)
Time: 18:02:16
(UTC+00:00)

USA 215 - Pass Details

Date: 05 July 2020
Orbit: 1102 x 1106 km, 123.0° (Epoch: 08 August)

Event Time Altitude Azimuth Distance (km) Brightness Sun altitude
Rises 20:57:55 0° 54° (NE) 3,926 6.2 -11.1°
Reaches altitude 10° 21:00:28 10° 59° (ENE) 2,965 5.5 -11.4°
Maximum altitude 21:06:54 58° 137° (SE) 1,268 3.3 -12.0°
Drops below altitude 10° 21:13:19 10° 216° (SW) 2,953 5.3 -12.6°
Sets 21:15:51 0° 221° (SW) 3,908 6.0 -12.8°
